LiveATC.Net - Listen to live air traffic control over the Internet!

ICAO: LKTB  IATA: BRQ   Airport: Brno-Turany Airport
City: Brno
Country: Czech Republic   Continent: Europe
LKTB METAR Weather: LKTB 172130Z 03009KT 9999 BKN024 M04/M09 Q1005 R27/32//94 NOSIG
LKTB Flight Activity (FlightAware)
LKTB Gnd/Twr/Radar
Feed Status: UP   Listeners: 1
Listen right in your browser - requires Flash (in browser, requires Flash)
Click here to listen with your own player (launches your MP3 player)
LKTB Gnd/Twr/Radar Audio Archives
Brno Ground125.425
Brno Handling131.800
Brno Radar (Approach)127.350
Brno Tower119.600


Unauthorized use prohibited. See Terms of Service

Find LiveATC Audio Streams

Airport/ARTCC Code

Frequency Search
(e.g., 124.400, 128.75)
Site-wide search

Browse LiveATC Feeds
LiveATC Coverage Map
Top 50 LiveATC Feeds
Bad Weather Areas

Offer a LiveATC Feed
Press Inquiries

LiveATC on iPhone
LiveATC on Android

Windows Phone
Windows 8/10

LiveATC Mobile
(Mobile browser)

ATC Audio Archives
Interesting Recordings

LiveATC Forums

Home Page
Make a Donation
Terms of Use
Privacy Policy

Canadian Air Freqs


FAA Airport Status
Nat'l Airspace Status
Arrival Demand Charts

Server Software By: